Temp
11 14 16 17 17 16 16 15 14 15 14 17 16 16 17 20 21 21 21 21 21 21 21 20 20 19 19 19 19 17 16 16 15 14 14 14 13 14 11 9 10 9 9 8
9 13 15 16 17 17 17 16 15 16 16 17 18 19 18 20 21 21 22 22 21 21 21 20 20 20 19 18 17 16 16 15 15 15 14 14 13 10 10 9 9 8 7 7
7 10 13 12 16 17 17 17 17 15 16 17 17 17 16 19 20 21 22 22 21 21 20 20 20 20 18 17 16 16 15 14 13 12 12 11 10 9 9 8 7 7 6 5
6 8 9 14 16 18 17 16 16 17 17 17 18 20 20 20 20 21 22 21 21 21 20 19 19 17 16 15 14 13 12 12 11 10 10 9 9 8 8 7 6 5 5 5
7 7 10 14 15 16 15 16 16 16 17 17 20 19 19 22 20 22 22 21 21 21 21 19 17 16 15 14 13 12 11 10 9 9 9 8 7 7 6 5 5 4 4 4
6 7 8 11 15 17 17 12 16 17 17 16 17 14 13 21 22 22 22 20 20 20 19 17 16 16 14 13 11 11 11 10 9 8 8 8 7 7 6 5 4 3 3 2
6 6 8 10 11 16 13 13 15 18 18 17 14 16 22 21 21 21 20 19 19 19 18 16 15 14 13 12 11 11 10 9 9 8 8 8 7 6 5 4 3 2 1 0
6 6 8 10 11 12 10 11 12 12 17 18 19 20 21 20 20 19 20 19 18 18 16 14 13 13 12 11 10 10 9 9 8 7 7 6 5 4 3 2 2 1 -1 -1
7 8 10 10 10 11 11 11 11 11 13 16 18 19 20 20 19 19 19 18 17 16 13 12 12 11 11 10 9 8 8 7 6 5 4 3 3 2 1 0 0 -0 -1 -1
8 10 10 11 11 12 11 12 12 13 14 16 15 17 19 19 18 17 16 16 15 13 12 10 10 9 9 9 7 7 6 5 4 3 2 1 1 1 1 0 -0 -1 -1 -2
8 10 11 12 14 13 13 13 13 13 14 14 15 16 14 16 16 15 14 13 12 11 10 9 9 8 7 7 6 5 4 3 2 2 1 0 -0 -1 -1 -1 -2 -2 -3 -3
7 10 11 12 15 15 14 13 12 13 13 15 14 15 15 14 12 13 12 11 10 10 9 8 7 6 6 5 5 4 3 2 1 0 -0 -0 -1 -2 -2 -3 -3 -4 -4 -5
6 7 11 12 12 12 12 13 14 14 13 14 14 14 15 12 11 12 11 10 9 8 7 6 5 5 4 3 3 2 2 0 -1 -1 -1 -2 -2 -2 -2 -4 -4 -4 -5 -5
5 8 9 9 9 10 11 11 11 12 13 13 15 15 14 14 10 10 9 8 7 6 5 4 3 2 1 1 1 1 0 -1 -1 -2 -2 -3 -3 -4 -4 -5 -5 -6 -7 -7
4 5 5 7 8 9 9 10 11 11 11 12 11 11 10 9 7 6 5 5 5 4 2 1 1 -0 -1 -1 -1 -1 -2 -3 -4 -4 -4 -4 -5 -5 -6 -7 -7 -9 -10 -10
2 4 3 4 4 6 7 8 7 6 6 6 7 6 5 5 4 2 1 0 2 0 -2 -1 -2 -4 -4 -4 -4 -4 -5 -6 -6 -5 -5 -6 -8 -8 -8 -9 -10 -10 -11 -11
-0 -0 1 0 1 1 1 2 2 1 1 2 0 -1 -1 0 -1 -3 -3 -3 -4 -5 -6 -5 -5 -5 -5 -5 -5 -7 -7 -7 -7 -7 -7 -8 -9 -9 -10 -11 -11 -12 -12 -13
-3 -3 -2 -1 -2 -1 -2 -2 -1 -0 -0 -2 -2 -1 -3 -3 -6 -7 -7 -6 -6 -5 -6 -6 -7 -7 -7 -7 -7 -7 -7 -8 -8 -9 -9 -10 -10 -11 -11 -12 -13 -14 -14 -14
-5 -5 -5 -4 -4 -4 -4 -4 -4 -5 -4 -4 -3 -4 -5 -6 -6 -6 -6 -5 -6 -7 -9 -8 -8 -7 -7 -8 -8 -8 -9 -9 -10 -10 -11 -12 -12 -13 -14 -14 -14 -15 -15 -16
-7 -7 -6 -6 -6 -6 -6 -6 -6 -5 -6 -5 -6 -6 -6 -7 -7 -7 -7 -8 -9 -9 -9 -9 -9 -9 -9 -9 -10 -10 -11 -11 -12 -13 -13 -14 -15 -15 -15 -16 -16 -16 -17 -17
-8 -8 -8 -7 -7 -7 -7 -6 -6 -6 -7 -6 -6 -7 -8 -8 -8 -8 -8 -9 -12 -11 -10 -10 -10 -10 -11 -11 -12 -12 -13 -13 -14 -15 -15 -16 -16 -17 -17 -17 -18 -18 -19 -19
-9 -9 -9 -8 -8 -8 -8 -8 -7 -8 -8 -8 -8 -8 -9 -9 -9 -10 -11 -11 -12 -12 -11 -11 -12 -12 -13 -13 -14 -14 -15 -15 -16 -16 -17 -17 -18 -18 -18 -19 -19 -20 -20 -20
-9 -9 -9 -9 -9 -9 -9 -9 -9 -9 -9 -9 -9 -9 -10 -11 -11 -11 -12 -13 -13 -13 -12 -13 -14 -14 -15 -15 -15 -16 -17 -17 -18 -18 -19 -19 -19 -20 -20 -21 -21 -21 -21 -22
-10 -10 -10 -10 -9 -9 -10 -10 -10 -10 -10 -11 -11 -11 -11 -11 -12 -13 -13 -14 -14 -14 -15 -15 -16 -16 -17 -17 -18 -18 -19 -19 -19 -20 -20 -21 -21 -21 -21 -22 -22 -22 -23 -23
-10 -10 -9 -10 -10 -11 -12 -11 -11 -12 -12 -12 -13 -13 -13 -13 -13 -15 -15 -15 -16 -16 -17 -17 -18 -18 -18 -18 -19 -19 -20 -20 -20 -21 -21 -21 -22 -22 -22 -22 -23 -23 -23 -24
-11 -11 -11 -11 -12 -12 -12 -12 -13 -13 -13 -14 -14 -15 -15 -15 -16 -16 -16 -17 -17 -18 -18 -18 -19 -19 -20 -20 -20 -20 -21 -21 -21 -21 -22 -22 -22 -22 -22 -22 -23 -23 -23 -23
-12 -12 -12 -12 -13 -13 -13 -13 -13 -14 -15 -15 -15 -16 -16 -16 -17 -17 -17 -18 -18 -19 -19 -20 -20 -20 -20 -20 -20 -20 -21 -21 -22 -22 -22 -22 -22 -22 -22 -23 -23 -23 -23 -23
Height
1432 1424 1415 1410 1409 1409 1410 1415 1427 1423 1424 1415 1412 1412 1411 1411 1413 1415 1414 1415 1418 1419 1421 1422 1424 1426 1429 1430 1431 1433 1437 1441 1446 1451 1453 1454 1455 1458 1462 1467 1470 1472 1475 1478
1434 1418 1412 1408 1401 1400 1397 1404 1409 1410 1411 1403 1400 1401 1403 1405 1406 1406 1408 1411 1412 1415 1416 1417 1419 1420 1421 1424 1427 1430 1433 1437 1440 1443 1446 1448 1451 1454 1458 1461 1465 1467 1469 1471
1444 1430 1417 1417 1386 1392 1395 1394 1396 1408 1402 1395 1396 1396 1397 1397 1397 1398 1402 1404 1406 1409 1410 1411 1414 1415 1417 1419 1421 1424 1428 1431 1433 1437 1439 1444 1448 1451 1454 1457 1460 1462 1463 1466
1454 1441 1428 1387 1385 1383 1388 1388 1389 1393 1392 1390 1388 1385 1386 1388 1389 1391 1395 1396 1398 1401 1404 1408 1410 1411 1413 1416 1419 1421 1424 1428 1432 1436 1439 1441 1445 1448 1449 1453 1454 1457 1460 1463
1447 1440 1416 1387 1385 1387 1390 1387 1384 1386 1386 1384 1381 1383 1382 1379 1381 1384 1384 1387 1390 1395 1398 1401 1405 1408 1411 1413 1417 1420 1423 1427 1429 1432 1436 1440 1443 1446 1449 1451 1454 1456 1459 1461
1446 1446 1432 1404 1382 1378 1381 1394 1375 1375 1378 1380 1378 1387 1380 1374 1376 1377 1378 1381 1385 1390 1396 1400 1402 1405 1408 1410 1414 1416 1419 1422 1426 1429 1432 1435 1438 1441 1444 1447 1450 1453 1455 1458
1434 1438 1424 1403 1391 1373 1393 1394 1381 1375 1372 1369 1373 1368 1367 1367 1370 1372 1373 1378 1384 1389 1393 1396 1399 1402 1405 1408 1411 1414 1415 1417 1420 1424 1428 1431 1434 1436 1439 1442 1446 1448 1451 1455
1430 1432 1420 1395 1385 1386 1390 1383 1382 1375 1368 1367 1365 1361 1360 1363 1367 1371 1374 1378 1382 1385 1389 1393 1395 1398 1402 1406 1409 1411 1413 1416 1419 1422 1425 1428 1431 1434 1437 1439 1441 1444 1447 1451
1411 1402 1384 1385 1392 1392 1389 1385 1381 1376 1368 1363 1365 1362 1361 1363 1367 1371 1373 1376 1379 1383 1387 1391 1393 1395 1399 1403 1406 1409 1413 1416 1419 1423 1425 1428 1430 1433 1435 1438 1440 1442 1445 1448
1401 1388 1386 1381 1380 1385 1385 1380 1375 1371 1368 1361 1362 1363 1361 1360 1362 1365 1369 1372 1374 1380 1385 1390 1393 1395 1400 1403 1406 1410 1414 1417 1421 1423 1426 1429 1432 1435 1437 1438 1440 1442 1444 1446
1391 1381 1379 1378 1374 1375 1376 1372 1371 1371 1367 1364 1367 1367 1367 1362 1363 1363 1367 1372 1375 1378 1383 1390 1393 1395 1398 1402 1405 1409 1413 1417 1421 1425 1427 1430 1433 1437 1439 1441 1444 1445 1446 1448
1386 1372 1371 1369 1368 1365 1365 1366 1366 1365 1362 1362 1366 1365 1367 1368 1367 1365 1368 1372 1377 1381 1385 1389 1393 1395 1398 1401 1404 1407 1411 1416 1420 1424 1428 1431 1434 1436 1439 1442 1444 1445 1446 1447
1385 1376 1372 1370 1370 1366 1363 1363 1363 1362 1362 1363 1369 1369 1365 1369 1369 1369 1370 1374 1378 1380 1383 1388 1392 1396 1400 1403 1406 1408 1410 1415 1421 1425 1429 1432 1434 1436 1438 1440 1441 1443 1444 1444
1380 1374 1372 1373 1372 1367 1363 1363 1361 1358 1363 1361 1361 1360 1361 1361 1373 1371 1370 1373 1376 1379 1384 1388 1392 1396 1401 1405 1409 1412 1414 1418 1422 1425 1428 1431 1433 1434 1436 1437 1439 1439 1439 1441
1380 1380 1380 1378 1373 1368 1363 1360 1358 1356 1356 1356 1357 1360 1360 1361 1369 1366 1368 1372 1375 1379 1384 1389 1392 1398 1403 1406 1410 1413 1415 1419 1423 1427 1430 1432 1433 1434 1434 1435 1436 1436 1437 1437
1384 1380 1380 1375 1373 1365 1361 1361 1360 1358 1356 1356 1357 1358 1360 1364 1366 1368 1372 1376 1376 1379 1386 1391 1394 1400 1405 1409 1413 1417 1419 1421 1425 1427 1429 1429 1431 1432 1433 1434 1434 1434 1434 1434
1382 1380 1378 1373 1369 1368 1368 1368 1365 1364 1364 1364 1364 1365 1366 1366 1371 1376 1378 1384 1385 1386 1391 1397 1399 1406 1409 1411 1415 1417 1420 1423 1425 1426 1427 1428 1428 1429 1429 1430 1431 1431 1430 1430
1386 1385 1381 1376 1374 1373 1373 1372 1370 1369 1369 1371 1373 1373 1375 1378 1381 1387 1391 1395 1397 1398 1401 1404 1406 1409 1413 1416 1418 1421 1421 1422 1424 1425 1426 1426 1427 1427 1427 1427 1427 1428 1427 1426
1384 1383 1381 1379 1378 1376 1376 1376 1377 1376 1376 1377 1379 1380 1383 1390 1394 1397 1399 1400 1402 1404 1409 1411 1412 1414 1416 1418 1421 1423 1422 1422 1423 1424 1424 1424 1424 1424 1424 1424 1424 1424 1423 1422
1388 1387 1387 1385 1384 1382 1382 1384 1383 1382 1384 1385 1386 1389 1392 1397 1401 1403 1405 1405 1409 1411 1415 1416 1417 1417 1417 1418 1421 1424 1423 1422 1422 1423 1423 1423 1423 1423 1422 1421 1421 1420 1419 1418
1397 1396 1394 1392 1389 1392 1393 1393 1392 1392 1396 1397 1397 1399 1401 1405 1408 1409 1410 1410 1416 1418 1418 1418 1418 1418 1420 1421 1422 1423 1422 1422 1422 1422 1422 1421 1421 1421 1419 1418 1417 1417 1416 1414
1405 1404 1402 1403 1403 1403 1404 1403 1402 1403 1404 1405 1407 1409 1410 1412 1414 1414 1416 1416 1419 1420 1420 1420 1420 1421 1421 1422 1422 1422 1422 1422 1422 1421 1421 1420 1419 1418 1417 1415 1414 1413 1411 1409
1416 1415 1414 1413 1413 1413 1413 1412 1412 1412 1413 1414 1415 1416 1417 1419 1421 1420 1419 1423 1422 1422 1421 1421 1422 1422 1423 1423 1422 1422 1421 1421 1421 1420 1419 1418 1417 1415 1413 1412 1410 1408 1405 1403
1423 1423 1422 1423 1422 1421 1420 1422 1421 1421 1421 1421 1422 1424 1425 1425 1425 1425 1425 1426 1425 1424 1424 1424 1424 1424 1423 1423 1422 1421 1420 1420 1419 1418 1417 1415 1413 1411 1409 1407 1404 1402 1400 1398
1430 1430 1429 1428 1427 1427 1428 1428 1427 1427 1426 1426 1427 1427 1428 1429 1429 1429 1429 1429 1428 1426 1425 1425 1425 1424 1424 1423 1421 1420 1419 1418 1417 1415 1413 1411 1409 1407 1405 1402 1400 1397 1395 1393
1435 1434 1434 1434 1434 1433 1433 1432 1430 1431 1431 1431 1431 1432 1432 1432 1432 1431 1431 1430 1429 1428 1427 1427 1426 1424 1423 1421 1420 1419 1417 1415 1414 1412 1410 1408 1406 1404 1401 1398 1396 1393 1390 1387
1439 1439 1439 1438 1438 1438 1437 1437 1436 1435 1435 1435 1434 1435 1434 1434 1433 1432 1431 1431 1430 1429 1428 1426 1425 1423 1422 1420 1418 1417 1415 1413 1411 1409 1407 1405 1402 1400 1397 1395 1392 1389 1386 1383
Wind_Speed
17 14 18 19 9 9 14 7 9 7 9 10 10 11 15 17 12 9 22 27 29 28 24 22 20 20 21 22 27 43 45 43 46 45 34 31 36 35 32 38 33 29 27 25
10 13 16 20 20 16 15 10 7 8 8 8 19 22 14 20 26 23 19 26 30 30 26 25 22 21 21 18 22 33 40 38 36 34 34 30 28 27 26 27 26 24 22 21
6 16 13 11 27 19 6 7 6 8 8 8 9 10 17 28 33 34 31 31 30 34 33 30 27 28 25 22 21 25 26 30 27 29 28 28 29 26 25 23 22 20 20 21
7 14 8 18 4 16 16 9 7 5 6 10 18 28 29 26 33 37 33 33 29 34 34 32 31 29 24 22 23 26 26 28 31 31 30 27 25 23 22 22 19 17 18 19
4 7 16 5 12 3 7 14 8 8 11 9 19 16 11 17 29 27 35 34 34 35 34 37 34 31 27 24 23 22 24 25 25 24 22 21 21 21 19 18 17 17 16 16
3 4 6 9 7 19 2 8 9 15 12 9 9 2 5 18 29 39 35 33 39 35 33 35 33 31 29 25 24 23 21 20 19 19 17 18 17 18 17 16 16 15 16 15
4 4 8 11 23 15 11 7 19 6 14 15 6 11 18 15 26 28 28 32 28 29 33 34 33 31 28 25 23 21 22 22 21 19 17 16 16 16 16 17 17 17 17 16
5 4 10 2 13 5 6 9 21 26 10 9 13 9 10 22 24 26 29 30 30 32 32 33 32 29 26 24 24 24 23 21 20 18 17 17 17 18 18 18 17 18 20 22
9 7 4 3 1 10 5 9 13 23 23 26 14 13 22 24 25 25 25 29 29 31 32 30 28 25 25 25 25 24 22 20 18 16 15 14 15 17 17 17 18 19 20 21
3 8 11 7 9 19 12 9 15 23 24 22 15 18 24 29 32 31 35 33 31 32 30 28 26 24 22 24 23 21 19 18 18 18 18 18 18 17 17 18 18 18 18 18
5 6 5 18 9 12 10 5 11 14 19 20 14 13 21 25 32 34 34 31 31 31 30 28 26 24 23 22 22 20 20 21 20 19 19 20 18 17 18 15 12 12 14 14
6 11 7 15 14 8 10 6 10 13 15 14 18 17 17 24 29 31 31 31 29 28 28 27 25 24 22 22 22 23 22 20 20 19 19 18 19 19 16 13 12 11 11 12
7 19 13 13 12 8 15 14 11 13 12 18 20 20 12 22 25 28 29 28 29 31 29 27 26 25 22 21 20 20 21 22 21 20 18 16 13 10 11 10 10 10 11 11
22 18 7 15 8 8 5 2 4 5 12 15 19 16 19 16 27 31 30 32 31 30 29 29 28 24 21 19 19 19 20 19 19 18 16 13 11 9 7 6 6 7 8 11
22 16 11 6 5 7 8 8 5 2 1 4 6 15 24 32 33 31 31 33 34 33 30 29 27 25 23 23 23 21 18 16 14 11 8 6 5 7 9 10 11 10 10 12
16 12 15 14 13 13 11 9 9 9 8 12 18 25 29 31 33 33 33 34 36 36 32 29 29 26 22 19 16 13 10 9 9 11 12 13 11 10 9 8 9 10 12 13
13 14 18 17 16 17 15 10 10 12 13 16 21 25 28 32 32 32 32 31 33 34 30 25 22 16 11 10 10 12 13 12 10 7 7 6 6 6 7 8 10 11 12 14
6 5 6 7 9 11 13 14 14 16 18 18 20 22 26 30 36 36 34 30 27 25 20 16 14 12 10 9 7 7 7 6 4 3 3 4 5 7 8 9 10 11 12 14
10 10 11 12 13 15 17 18 18 20 22 23 26 31 34 34 31 28 24 22 21 21 19 14 12 10 9 7 4 3 2 1 1 2 4 6 7 7 8 10 12 14 14 14
21 21 20 22 22 23 24 23 23 26 27 28 33 34 33 29 26 24 22 26 23 21 15 13 10 9 8 6 4 4 4 5 5 5 7 8 8 9 9 10 10 12 14 15
27 28 30 31 33 31 30 30 32 33 31 29 31 32 30 27 24 22 23 26 20 15 13 11 10 9 7 7 6 7 7 7 7 8 7 7 7 9 10 12 13 14 15 17
30 32 34 34 35 35 34 34 34 33 32 31 30 28 27 26 23 23 22 21 16 12 10 10 9 8 7 7 7 7 7 7 8 8 8 9 10 11 11 13 14 15 16 18
31 32 33 33 33 33 31 31 30 30 29 27 25 22 22 20 17 16 18 13 10 10 10 11 10 8 6 6 7 8 8 8 8 8 9 11 12 12 13 13 16 18 19 19
29 29 29 28 27 27 29 26 25 25 24 23 22 19 17 15 17 15 12 9 10 10 10 11 10 8 8 8 9 10 10 9 9 10 11 12 13 16 18 20 21 19 18 19
22 22 21 22 24 24 22 20 21 20 19 19 18 16 15 13 12 13 9 9 9 9 11 12 12 11 12 13 13 11 10 11 12 13 14 15 17 18 19 19 20 20 21 23
20 21 21 20 19 17 16 15 18 16 15 16 15 13 12 11 9 8 8 9 9 9 10 11 12 12 13 14 14 14 15 16 16 17 16 15 16 19 20 20 18 19 20 22
17 17 17 17 16 13 12 11 11 13 11 9 9 8 6 5 5 5 5 5 6 8 11 12 11 12 14 15 15 14 14 14 16 16 16 18 19 19 18 18 19 20 20 22
Wind_Direction
304 280 264 249 241 221 208 200 195 208 203 216 212 213 241 225 210 213 209 201 212 207 203 199 209 219 223 227 231 234 235 238 237 235 235 239 240 240 235 236 226 218 222 229
304 284 262 247 239 251 229 207 216 225 235 222 225 225 227 235 240 228 218 226 219 212 214 214 219 230 240 230 218 227 230 230 232 225 228 226 223 211 204 203 211 217 222 223
281 330 295 264 235 229 242 221 179 213 220 235 244 226 215 225 232 232 235 239 229 215 216 218 220 230 231 226 216 211 214 218 221 215 210 202 192 194 202 206 209 212 214 216
288 317 249 248 249 226 225 229 215 243 219 235 237 242 242 243 232 224 230 239 231 223 214 218 219 218 221 210 200 195 196 192 188 185 184 185 190 197 203 210 210 209 207 206
240 295 286 246 239 199 203 255 244 247 257 231 245 251 239 246 227 216 241 232 209 210 214 211 209 212 214 204 202 200 192 189 189 192 194 188 187 192 196 201 199 195 191 190
156 250 293 324 195 233 56 275 251 224 230 239 226 212 249 221 221 228 237 230 205 207 203 206 207 212 210 204 200 203 206 205 200 199 197 193 196 194 195 194 191 182 175 174
175 220 252 249 302 240 200 262 324 300 246 231 197 227 250 227 215 223 219 198 197 206 206 206 208 207 208 211 212 216 211 207 203 200 203 204 202 196 188 180 177 175 179 175
164 183 249 79 323 47 296 317 334 334 350 313 241 185 209 189 186 186 189 194 203 205 203 201 203 208 208 211 215 216 208 203 200 200 201 196 191 181 180 182 188 187 181 177
193 216 270 197 2 300 328 311 333 336 337 3 267 188 173 182 193 197 204 200 202 206 198 197 204 211 213 211 209 204 203 201 198 193 189 187 191 187 187 193 198 197 198 199
134 248 244 241 249 275 275 337 343 356 359 12 309 226 197 195 194 197 197 196 197 197 192 190 198 205 217 206 202 203 201 195 190 189 189 191 192 193 195 195 197 200 201 205
240 273 276 257 241 267 285 349 344 351 354 9 358 319 244 209 202 197 195 194 193 193 191 192 195 198 201 201 200 197 192 188 192 195 190 184 186 187 192 192 209 217 213 220
224 231 223 258 262 269 258 335 344 344 346 1 329 330 295 244 212 199 188 186 186 187 188 187 190 190 191 194 199 196 189 190 192 190 189 187 184 178 180 193 205 217 224 235
330 326 294 286 282 268 259 256 299 322 323 322 280 259 273 227 207 192 183 182 183 182 182 182 183 180 180 187 196 197 191 175 171 175 177 183 188 199 208 203 222 229 235 242
19 18 10 21 353 358 22 326 296 309 275 276 284 260 234 215 203 183 173 177 177 174 169 171 171 165 169 180 186 183 179 177 184 183 187 191 194 195 201 211 238 260 290 298
12 17 13 12 60 45 2 345 325 3 278 254 205 198 183 168 169 160 162 165 166 162 155 158 155 144 153 165 170 166 169 165 164 167 181 190 204 232 237 255 275 285 289 285
344 9 34 50 48 45 41 36 44 55 85 112 141 147 151 155 153 150 150 152 159 142 140 142 137 132 141 151 151 156 165 157 163 182 206 222 233 240 242 253 262 264 272 280
7 3 4 24 36 45 54 67 82 90 110 125 127 134 139 141 137 133 135 133 130 127 125 127 126 135 154 170 165 155 158 181 209 205 212 226 243 257 263 269 277 280 282 283
40 40 43 44 53 67 69 77 95 110 111 117 127 134 128 123 117 117 112 113 109 106 104 107 114 119 122 131 151 168 173 178 197 221 249 270 279 286 292 295 294 290 286 284
55 63 72 79 84 89 91 92 96 105 114 120 125 117 115 112 111 110 115 109 102 101 97 104 108 114 116 114 112 127 136 149 275 308 311 310 311 305 295 291 292 292 292 292
75 79 87 92 93 92 93 97 105 104 105 112 111 111 108 108 109 110 109 98 95 98 103 101 100 93 84 79 66 38 29 15 359 342 329 325 322 312 308 309 304 301 301 300
85 89 90 89 88 91 94 97 99 99 102 103 101 101 102 105 106 105 102 96 89 89 86 82 75 71 64 48 31 16 9 0 350 342 333 327 321 317 314 310 307 306 305 302
89 89 90 93 94 95 95 96 97 98 97 96 97 100 101 99 99 95 88 90 86 74 68 64 62 55 44 26 10 2 354 347 344 336 328 322 319 315 313 311 309 309 307 308
90 93 94 93 93 94 94 92 93 94 92 91 92 93 93 94 92 93 89 78 68 57 50 47 45 42 37 13 2 354 351 347 341 334 328 325 323 321 322 323 320 315 314 313
97 95 94 94 93 88 83 83 85 85 86 85 84 82 79 82 85 79 80 78 59 44 44 48 46 42 23 7 356 350 346 344 342 340 336 331 326 322 321 322 322 320 313 305
98 99 98 95 90 90 91 90 90 88 87 85 82 78 75 76 76 85 72 57 44 36 29 22 16 10 4 359 355 354 353 349 344 334 330 329 329 329 328 328 324 316 311 308
97 92 91 90 91 95 94 93 92 89 87 86 83 78 77 78 75 58 41 31 20 13 8 1 354 349 350 352 349 344 339 337 336 338 335 332 331 330 329 330 328 323 319 317
101 100 97 93 89 89 89 90 91 91 83 71 78 77 60 43 36 29 23 19 11 1 354 351 349 346 341 336 332 330 329 328 328 328 325 325 327 329 329 324 322 321 318 316